Location: Aufkirchen
(47.9603°N, 11.3653°E)
Time: 16:42:08
(UTC+01:00)

Transit 2A - Pass Details

Date: 28 November 2020
Orbit: 599 x 960 km, 66.7° (Epoch: 26 January)

Event Time Altitude Azimuth Distance (km) Brightness Sun altitude
Rises 02:15:54 0° 325° (NW) 3,337 - -52.3°
Reaches altitude 10° 02:18:27 10° 326° (NNW) 2,342 - -52.0°
Maximum altitude 02:23:48 82° 55° (NE) 734 - -51.2°
Drops below altitude 10° 02:28:34 10° 143° (SE) 2,098 - -50.5°
Sets 02:30:45 0° 144° (SE) 2,963 - -50.2°
